Regional Weather Roundup
Issued by NWS Upton, NY

Current Version | Previous Version | Text Only | Print | Product List | Glossary On
Versions: 1 2 3 4 5 6 7 8 9 10 11 12 13 14 15 16 17 18 19 20 21 22 23 24 25 26 27 28
000 ASUS41 KOKX 281404 RWROKX REGIONAL WEATHER ROUNDUP NATIONAL WEATHER SERVICE NEW YORK NY 1000 AM EDT SUN AUG 28 2016 NOTE: "FAIR" INDICATES FEW OR NO CLOUDS BELOW 12,000 FEET WITH NO SIGNIFICANT WEATHER AND/OR OBSTRUCTIONS TO VISIBILITY. NYZ071-072-176-178-NJZ106-104-281500- NEW YORK CITY METRO AREA CITY SKY/WX TMP DP RH WIND PRES REMARKS Central Park SUNNY 79 66 64 CALM 30.30S LaGuardia APRT SUNNY 81 67 62 NE7 30.26S Kennedy INTL MOSUNNY 80 67 64 CALM 30.28S Newark/Liberty MOSUNNY 80 66 62 SW5 30.27S Bronx Bot Gard N/A 79 64 61 N7 30.29R Wall St Helipt SUNNY 81 68 65 W3 30.28S Teterboro SUNNY 79 66 64 SW3 30.26S $$ NYZ177-179-078>081-281500- LONG ISLAND NEW YORK CITY SKY/WX TMP DP RH WIND PRES REMARKS Farmingdale SUNNY 80 63 55 VRB5 30.28R MacArthur/ISP MOSUNNY 80 62 54 S7 30.28R Shirley SUNNY 78 63 59 S6 30.28R Riverhead NOT AVBL Westhampton SUNNY 78 58 49 SE6 30.30R Southampton N/A 77 63 61 SE3 30.25R Bridgehampton N/A 75 64 69 CALM 30.28R East Hampton FAIR 76 61 58 E5 30.28R Montauk N/A 76 64 66 NE6 30.30R $$ NYZ052-065-067-281500- HUDSON VALLEY CITY SKY/WX TMP DP RH WIND PRES REMARKS White Plains MOSUNNY 78 65 63 S5 30.28S Newburgh SUNNY 75 64 69 SW7 30.29F Montgomery SUNNY 76 64 66 VRB3 30.28S Poughkeepsie SUNNY 76 64 66 S5 30.27S Albany MOSUNNY 75 62 64 SE6 30.25F $$ NJZ001-105-106-008-010-013-015-019>022-104-281500- NEW JERSEY CITY SKY/WX TMP DP RH WIND PRES REMARKS Newark/Liberty MOSUNNY 80 66 62 SW5 30.27S Teterboro SUNNY 79 66 64 SW3 30.26S Caldwell SUNNY 76 67 73 CALM 30.28F Morristown MOSUNNY 75 68 78 CALM 30.28S Somerville SUNNY 77 68 73 CALM 30.26S Linden FAIR 80 65 59 CALM 30.29S Sussex LGT RAIN 75 65 70 S3 30.28S Abdover N/A 76 63 64 CALM 30.29S Trenton SUNNY 78 68 71 CALM 30.27S Millville SUNNY 80 69 69 VRB3 30.26S Atlantic City SUNNY 82 65 56 E5 30.26R Wrightstown SUNNY 78 69 73 N5 30.24S Toms River SUNNY 82 69 64 CALM 30.28R Belmar SUNNY 80 67 64 E6 30.28S $$ PAZ047>061-062-071-281500- EASTERN PENNSYLVANIA CITY SKY/WX TMP DP RH WIND PRES REMARKS Philadelphia MOSUNNY 80 67 64 CALM 30.27S Allentown SUNNY 76 65 68 CALM 30.28S Scranton SUNNY 77 62 59 VRB5 30.28S $$ CTZ002-004>006-009-010-012-RIZ004-006-007-MAZ004-011-015-281500- SOUTHERN NEW ENGLAND IN CT CITY SKY/WX TMP DP RH WIND PRES REMARKS Bradley INTL MOSUNNY 76 65 68 VRB3 30.29S Hartford SUNNY 78 64 61 SE5 30.28S Danbury SUNNY 75 66 73 SE6 30.30S Wtrbury/Oxford MOSUNNY 75 64 69 S8 30.32S Bridgeport SUNNY 78 66 66 SE8 30.28R Meriden SUNNY 79 64 60 VRB5 30.28F New Haven MOSUNNY 76 67 73 SE6 30.29R Chester FAIR 79 63 57 S6 30.30S Groton SUNNY 79 64 60 VRB3 30.28S Wilimantic SUNNY 76 63 64 CALM 30.30F IN RI CITY SKY/WX TMP DP RH WIND PRES REMARKS Providence MOSUNNY 77 56 48 VRB3 30.30R Block Island SUNNY 75 61 61 NE5 30.30R Westerly SUNNY 79 61 53 NE5 30.30R IN MA CITY SKY/WX TMP DP RH WIND PRES REMARKS Boston MOSUNNY 76 60 57 SE5 30.29F Worcester SUNNY 72 58 61 S9 30.32F Westfield SUNNY 76 67 73 S8 30.28F Provincetown SUNNY 75 66 73 NE6 30.30 Nantucket SUNNY 75 60 59 N14 30.28S $$ ANZ330-335-338-340-345-350-353-355-281500- COASTAL MARINE OBSERVATIONS STATION/POSITION TIME SKY/WX TEMP WIND PRES VSBY WAVE AIR SEA DIR/SP/G HT/PER (UTC) (F) (DEG/KT/KT) (MB) (MI) (FT/S) NY HARB ENTRANCE NOT AVBL 20S FIRE ISLAND 1250 75 74 100/ 8/ 8 1024.4 3/ 9 GREAT SOUTH BAY 1300 76 79 100/ 6/ 8 N/A 23 SSW MONTAUK P 1250 75 76 90/ 8/ 8 1025.3 2/ 9 15 E BARNEGAT LI 1300 76 N/A 3/ 9 HUDSON CANYON 1250 77 78 1023.9 3/ 5 KINGS POINT 1300 74 76 1024.9 EXECUTION ROCKS 1300 74 30/ 6/ 8 N/A CENTRAL LI SOUND 1330 74 75 80/ 4/ 6 N/A 0 EASTERN LI SOUND 1300 74 71 50/ 6/ 6 N/A ROBBINS REEF 1300 76 10/ 2/ 2 1024.3 $$ >>>>>>>>>>>>>>>>>>>>>>>>>>>> KEY <<<<<<<<<<<<<<<<<<<<<<<<<<< > < > SKY/WX - Sky Condition/Present Weather < > TMP - Temperature in Fahrenheit < > DP - Dew Point in Fahrenheit < > RH - Relative Humidity in Percent < > WIND - Direction (from) and Speed in MPH < > PRES - Mean Sea Level Pressure (inches of Hg) < > WCI - Wind Chill Index < > VSB - VISIBILITY IN MILES < > HX - HEAT INDEX < > TC - TEMPERATURE IN CELSIUS < > VRB - VARIABLE WIND DIRECTION < > < >>>>>>>>>>>>>>>>>>>>>>>>>>>> KEY <<<<<<<<<<<<<<<<<<<<<<<<<<<

USA.gov is the U.S. government's official web portal to all federal, state and local government web resources and services.